Hourly Weather Roundup
Issued by NWS Central Illinois

Home | Current Version | Previous Version | Text Only | Print | Product List | Glossary On
Versions: 1 2 3 4 5 6 7 8 9 10 11 12 13 14 15 16 17 18 19 20 21 22 23 24 25 26 27 28 29 30 31 32 33 34 35 36 37 38 39 40 41 42 43 44 45 46 47 48 49 50
000
NZUS43 KILX 261710
HWRILX

AREA WEATHER ROUNDUP
NATIONAL WEATHER SERVICE, LINCOLN IL
1200 PM CDT THU MAY 26 2016


CITY           SKY/WX    TMP DP  RH WIND       PRES   REMARKS
BLOOMINGTON    CLOUDY    72  67  84 SW10      29.94F
CHAMPAIGN      CLOUDY    74  66  76 S14       29.93F
DANVILLE       LGT RAIN  65  64  96 SE10      29.92F
DECATUR        CLOUDY    76  67  73 S10       29.90F
EFFINGHAM      CLOUDY    71  68  89 NW3       29.96R
FLORA          CLOUDY    67  65  93 SE18      29.94F
GALESBURG      MOSUNNY   76  67  74 S9        29.91F
JACKSONVILLE   MOSUNNY   77  66  68 S8        29.91F
LACON          CLOUDY    73  64  74 SW8       29.91F
LAWRENCEVILLE  CLOUDY    68  65  90 E10       30.01F
LITCHFIELD     MOSUNNY   75  64  67 SW10      29.95F
$$


CITY           SKY/WX    TMP DP  RH WIND       PRES   REMARKS
LINCOLN        PTSUNNY   74  65  75 CALM      29.91F
MACOMB         MOSUNNY   78  66  68 S8        29.93F HX  80
MATTOON          N/A     71  65  81 SE9       29.93F
MT CARMEL AP   CLOUDY    67  63  87 E6        30.02F
OLNEY-NOBLE AP PTSUNNY   64  64 100 SE15      29.95F
PARIS          CLOUDY    67  65  93 SE5       29.98F
PEORIA         CLOUDY    75  65  70 S7        29.91F
PONTIAC        CLOUDY    76  67  73 S7        29.93F
RANTOUL        CLOUDY    69  65  87 S9        29.94F
ROBINSON       CLOUDY    65  64  95 E15       29.97F
SPRINGFIELD    MOSUNNY   80  66  62 S10       29.91F HX  82
TAYLORVILLE    CLOUDY    76  66  69 SE13      29.93S
$$

...REGIONAL REPORTS...


CITY           SKY/WX    TMP DP  RH WIND       PRES   REMARKS
CHICAGO O`HARE CLOUDY    75  64  68 S12       29.92F
KANKAKEE       CLOUDY    74  65  74 S6        29.96S
MOLINE         CLOUDY    82  65  56 S9G18     29.88F HX  84
MOUNT STERLING MOSUNNY   76  67  72 SE12      29.90F
MOUNT VERNON   CLOUDY    66  63  88 SE6       30.00S
PITTSFIELD     CLOUDY    79  67  66 S9        29.92F HX  81
QUINCY         CLOUDY    77  65  66 S9        29.90F
ROCKFORD       CLOUDY    76  62  62 SW7       29.93R
$$


CITY           SKY/WX    TMP DP  RH WIND       PRES   REMARKS
BURLINGTON     CLOUDY    78  68  71 S10       29.90F HX  80
CEDAR RAPIDS   SUNNY     75  62  64 S6        29.89F
DES MOINES     MOSUNNY   77  63  61 S9        29.89S
KIRKSVILLE     CLOUDY    79  62  56 S6        29.92S HX  80
OTTUMWA        CLOUDY    76  65  68 S7        29.89F
ST LOUIS       CLOUDY    74  65  73 S17G25    29.94F
$$


CITY           SKY/WX    TMP DP  RH WIND       PRES   REMARKS
TERRE HAUTE    LGT RAIN  65  63  93 E13       29.98F
EVANSVILLE     LGT RAIN  67  64  90 NE7       30.06F FOG
INDIANAPOLIS   TSTM      69  66  90 W15       30.06R
LAFAYETTE      LGT RAIN  67  66  97 SE7       29.98F
MADISON        PTSUNNY   75  62  64 SW9       29.87S
MILWAUKEE      PTSUNNY   75  64  68 SW15      29.87F
$$






USA.gov is the U.S. government's official web portal to all federal, state and local government web resources and services.